Regional Weather Roundup
Issued by NWS

Home | Current Version | Previous Version | Text Only | Print | Product List | Glossary Off
Versions: 1 2 3 4 5 6 7 8 9 10 11 12 13 14 15 16 17 18 19 20 21 22 23 24 25 26 27 28 29 30 31 32 33 34 35 36 37 38 39 40 41 42 43 44 45 46 47 48 49 50

000
ASUS43 KOAX 060402
RWRNE

WEATHER ROUNDUP FOR NEBRASKA
NATIONAL WEATHER SERVICE OMAHA NE
1000 PM CST MON DEC 05 2016

NOTES: SATELLITE DATA IS BEING USED TO AUGMENT CLOUD COVER ABOVE
       12000 FEET.
       "FAIR" INDICATES FEW OR NO CLOUDS BELOW 12,000 FEET WITH NO
       SIGNIFICANT WEATHER AND/OR OBSTRUCTIONS TO VISIBILITY.

  * THESE STATIONS DO NOT REPORT WEATHER SUCH AS RAIN...SNOW OR FOG.

NEZ001>004-019>022-054>056-060500-
NEBRASKA PANHANDLE

CITY           SKY/WX    TMP DP  RH WIND       PRES   REMARKS
SCOTTSBLUFF    CLEAR     19   9  65 W13       29.94R WCI   6
ALLIANCE       CLEAR     14   6  70 W16       29.89R WCI  -2
CHADRON        MOCLDY    19   9  65 W10       29.95R WCI   7
KIMBALL        CLOUDY    18  14  83 NW12      29.89R WCI   6
SIDNEY         CLOUDY    19   8  62 N9        29.91R WCI   8
$$

NEZ057>060-069>072-079>082-060500-
SOUTHWEST NEBRASKA

CITY           SKY/WX    TMP DP  RH WIND       PRES   REMARKS
NORTH PLATTE   CLOUDY    26  14  60 NW8       29.94R WCI  18
IMPERIAL       CLOUDY    27  14  58 N12       29.94R WCI  17
LEXINGTON      CLOUDY    29  16  58 NW22G28   29.94R WCI  15
MCCOOK         CLOUDY    30  15  53 N21       29.92R WCI  17
OGALLALA       MOCLDY    27  13  56 NW20      29.93R WCI  13
$$

NEZ005>010-023>029-035>040-094-060500-
NORTH CENTRAL NEBRASKA

CITY           SKY/WX    TMP DP  RH WIND       PRES   REMARKS
VALENTINE      CLEAR     20  10  65 NW16      29.90R WCI   6
AINSWORTH      CLEAR     23  13  66 NW13      29.88R WCI  11
BROKEN BOW     CLOUDY    26  15  63 NW20G30   29.89R WCI  12
O`NEILL        PTCLDY    26  17  68 NW15G21   29.88R WCI  14
ORD            CLOUDY    28  15  58 NW15      29.89R WCI  16
THEDFORD       CLOUDY    24  16  70 NW9       29.91R WCI  14
$$

NEZ041-046>049-061>064-073>077-083>087-060500-
SOUTH CENTRAL NEBRASKA

CITY           SKY/WX    TMP DP  RH WIND       PRES   REMARKS
GRAND ISLAND   CLOUDY    30  19  63 NW24G31   29.88R WCI  16
AURORA         CLOUDY    31  21  65 N28G38    29.86R WCI  17
HASTINGS       CLOUDY    31  20  63 N29G36    29.87R WCI  16
HEBRON         CLOUDY    36  28  72 N17G31    29.83R WCI  26
HOLDREGE       CLOUDY    31  19  62 NW16      29.91R WCI  19
KEARNEY *      CLOUDY    30  16  55 N18       29.89R WCI  18
YORK           CLOUDY    32  25  74 N20G26    29.82R WCI  20
$$

NEZ011>018-030>034-042>045-060500-
NORTHEAST NEBRASKA

CITY           SKY/WX    TMP DP  RH WIND       PRES   REMARKS
NORFOLK        CLOUDY    29  19  66 NW23G32   29.85R WCI  15
ALBION         CLOUDY    29  19  66 NW21      29.86S WCI  16
BLAIR          CLOUDY    36  32  86 NW16      29.80R WCI  26
FREMONT        CLOUDY    34  29  82 NW20      29.84R WCI  22
TEKAMAH        CLOUDY    35  27  72 NW21G30   29.83R WCI  24
WAYNE          CLOUDY    31  22  69 NW21G32   29.83R WCI  18
$$

NEZ050>053-065>068-078-088>093-060500-
SOUTHEAST NEBRASKA

CITY           SKY/WX    TMP DP  RH WIND       PRES   REMARKS
LINCOLN        CLOUDY    36  28  73 N22       29.82R WCI  25
OMAHA EPPLEY   LGT RAIN  37  32  82 N18G25    29.80R WCI  27
BEATRICE       CLOUDY    39  32  77 N23G31    29.79R WCI  28
FALLS CITY     CLOUDY    37  34  89 SE5       29.74R WCI  33
NEBRASKA CITY  CLOUDY    40  34  79 W13       29.75R WCI  33
PLATTSMOUTH    CLOUDY    39  32  75 NW22G28   29.78R WCI  29
$$

NEZ044-045-051>053-067-060500-
OMAHA AREA

CITY           SKY/WX    TMP DP  RH WIND       PRES   REMARKS
OMAHA EPPLEY   LGT RAIN  37  32  82 N18G25    29.80R WCI  27
BLAIR          CLOUDY    36  32  86 NW16      29.80R WCI  26
FREMONT        CLOUDY    34  29  82 NW20      29.84R WCI  22
MILLARD        LGT RAIN  37  33  83 NW16      29.81R WCI  28
OFFUTT AFB     RAIN      38  38  99 NW15      29.79R WCI  30
PLATTSMOUTH    CLOUDY    39  32  75 NW22G28   29.78R WCI  29
WAHOO          CLOUDY    34  27  75 NW20G28   29.82R WCI  23
$$



USA.gov is the U.S. government's official web portal to all federal, state and local government web resources and services.